LGMK

Details ICAO LGMK (JMK)
Name Mikonos
Region Greece
Timezone Europe/Athens (UTC+3.0)
Plans Departing 360
Arriving 546
Stats Elevation 404 ft / 123 m (AMSL)
Location 37.435400° 25.348100°
Runways 1
Magnetic Variation 4.733° E
Sunrise 2019-04-26 03:31:15 UTC / 2019-04-26 06:31:15 Local
Sunset 2019-04-26 17:04:00 UTC / 2019-04-26 20:04:00 Local
Advertisement - Login to hide

Runways

ID Width Length Bearing (true/mag) Surface Threshold Overrun Markings Lighting
16 98 ft / 30 m 6,423 ft / 1,958 m 160.63° / 155.89° ASPHALT 0 ft / 0 m 200 ft / 61 m APP EDGE THRESHOLD REIL-OMNI
34 98 ft / 30 m 6,423 ft / 1,958 m 340.63° / 335.90° ASPHALT 0 ft / 0 m 200 ft / 61 m APP EDGE THRESHOLD REIL-OMNI

Map

Weather


0- 5 10 15 20 25 30 35+ Temperature / °C

Clouds and Precipitation
Forecast for 2019-04-26 12:00 UTC. Updated 2 hours ago

Ground ~20,000 ft ~40,000 ft Winds

METAR

LGMK 261120Z 01013KT CAVOK 21/12 Q1020

TAF

Not found

Frequencies

Tower 119.87 MHz
Approach 118.75 MHz
Warning: Do not use this data for real-world aviation or navigation. No guarantee of current accuracy is given.